Probability
81 77 81 87 87 94 94 87 90 81 81 77 71 61 68 65 58 58 71 90 97 94 94 94 94 94 94 90 90 77 74 81 90 87 81 84 71 52 39 23 16 19 19
81 74 81 77 77 77 87 84 90 90 90 94 77 84 68 68 84 68 65 84 97 97 90 87 87 87 84 84 87 90 87 84 90 97 84 87 84 61 45 35 23 19 19
71 65 77 68 71 71 74 71 77 77 87 87 84 65 74 74 81 77 61 61 77 90 90 84 84 84 84 77 77 84 87 90 87 97 94 84 77 68 61 45 26 35 26
61 71 74 74 68 74 74 77 74 71 77 81 84 81 71 77 68 84 71 71 52 45 74 81 77 84 84 81 71 74 81 87 84 90 94 90 87 77 65 58 45 42 29
52 55 65 74 61 71 74 48 68 71 68 74 81 87 74 77 68 58 65 65 65 58 52 61 81 81 81 77 74 71 81 81 90 90 90 90 84 84 71 61 55 52 42
52 48 61 55 48 61 65 68 65 61 71 71 19 19 68 74 68 55 48 55 61 55 45 45 55 68 71 84 84 84 77 87 87 90 90 84 84 84 84 61 61 58 52
39 29 42 45 35 58 52 39 45 42 55 58 58 35 61 48 58 68 58 55 58 55 58 52 42 42 55 74 77 84 84 84 84 90 90 94 87 87 84 65 55 48 48
26 13 35 39 29 55 23 29 29 48 42 35 52 42 29 42 58 26 58 48 45 58 55 45 55 58 42 39 19 77 81 84 77 81 81 90 90 81 68 68 55 35 26
19 19 16 26 35 42 42 26 32 19 39 32 32 42 26 23 26 42 35 42 55 58 52 58 61 65 58 39 45 26 68 74 84 77 81 77 77 71 65 58 58 45 32
16 13 16 23 29 32 58 32 29 35 29 39 29 23 26 26 29 23 26 32 45 52 35 23 26 52 55 42 45 19 61 68 68 74 74 71 74 65 48 55 58 58 45
10 13 16 13 19 29 32 19 29 32 48 39 42 45 26 29 26 19 13 19 29 32 35 45 29 35 32 42 29 23 45 52 52 58 68 74 68 68 52 58 55 52 52
26 16 23 23 23 29 29 19 23 23 32 45 48 48 35 23 13 16 13 23 29 32 26 39 35 39 32 32 23 23 29 10 3 6 19 42 58 58 52 48 45 52 48
45 48 19 35 35 42 29 29 35 32 23 23 32 39 48 32 16 13 6 6 16 35 39 42 23 29 13 19 13 6 19 0 0 0 0 3 6 29 45 48 45 45 45
42 45 45 42 32 26 16 42 39 29 19 16 10 32 45 26 13 19 6 13 10 16 45 19 29 23 10 23 23 0 10 0 0 0 0 0 0 0 0 6 6 6 10
39 39 52 45 39 39 39 32 42 35 42 32 26 23 32 26 19 19 16 19 16 6 3 32 16 23 35 32 0 0 19 0 0 0 0 0 0 0 0 0 0 0 0
42 42 45 48 52 48 45 45 45 45 42 45 52 42 42 35 35 32 26 26 19 16 10 10 16 19 23 6 0 6 26 0 0 0 0 0 0 0 0 0 0 0 0
48 61 61 58 52 65 58 65 52 39 29 39 35 29 32 29 29 23 29 29 19 16 16 19 32 35 29 13 3 10 10 6 0 0 0 0 0 0 0 0 0 0 0
65 65 65 65 58 52 58 55 45 45 45 29 29 29 26 26 42 39 35 19 29 26 13 13 13 26 35 32 29 32 0 0 3 0 0 0 0 0 0 0 0 0 0
65 61 58 58 55 52 48 48 55 45 35 32 29 29 23 19 35 39 42 26 26 3 16 13 13 23 19 16 13 13 6 13 0 0 0 0 0 0 0 0 0 0 0
61 58 52 45 42 35 29 39 39 35 29 19 19 16 13 13 13 19 10 16 13 19 13 13 13 6 6 13 6 6 0 6 3 0 0 0 0 0 0 0 0 0 0
32 48 39 35 26 6 6 16 16 13 19 23 16 13 10 6 6 0 0 3 0 3 3 3 0 0 0 0 0 3 0 0 0 0 0 0 0 0 0 0 0 0 0
35 32 26 13 6 0 0 0 3 13 13 13 13 10 10 10 0 0 0 0 0 0 0 0 0 0 0 0 0 0 0 0 0 0 0 0 0 0 0 0 0 0 0
26 13 13 6 0 0 0 0 0 0 6 10 10 10 0 0 0 0 0 0 0 0 0 0 0 0 0 0 0 0 0 0 0 0 0 0 0 0 0 0 0 0 0
6 10 6 3 3 0 0 0 0 0 0 3 3 3 3 0 0 0 0 0 0 0 0 0 0 0 0 0 0 0 0 0 0 0 0 0 0 0 0 0 0 0 0
0 3 3 0 0 0 0 0 0 0 3 3 0 0 0 0 0 0 0 0 0 0 0 0 0 0 0 0 0 0 0 0 0 0 0 0 0 0 0 0 0 0 0
0 0 0 0 0 0 0 0 0 0 0 0 0 0 0 0 0 0 0 0 0 0 0 0 0 0 0 0 0 0 0 0 0 0 0 0 0 0 0 0 0 0 0
Height
5882 5882 5882 5883 5883 5883 5883 5883 5883 5883 5884 5884 5884 5884 5884 5883 5884 5885 5886 5886 5887 5888 5889 5890 5891 5892 5893 5894 5895 5897 5898 5900 5901 5902 5903 5904 5905 5906 5906 5907 5908 5908 5909
5881 5881 5881 5882 5882 5882 5883 5883 5883 5883 5883 5883 5883 5883 5883 5883 5884 5885 5884 5885 5886 5887 5888 5889 5890 5890 5891 5892 5894 5895 5897 5898 5899 5900 5901 5902 5903 5904 5905 5906 5906 5907 5907
5880 5880 5881 5881 5881 5882 5882 5883 5883 5883 5883 5883 5883 5883 5883 5883 5884 5884 5884 5884 5885 5886 5887 5888 5889 5889 5890 5891 5892 5894 5895 5896 5897 5898 5899 5900 5901 5902 5903 5903 5904 5905 5906
5879 5879 5880 5880 5881 5881 5882 5882 5883 5883 5883 5883 5882 5882 5882 5882 5883 5883 5884 5884 5885 5885 5886 5887 5888 5888 5889 5890 5891 5892 5893 5894 5895 5896 5897 5898 5899 5899 5900 5901 5902 5902 5903
5877 5878 5879 5880 5880 5881 5882 5882 5882 5882 5882 5882 5882 5882 5882 5882 5883 5883 5883 5884 5884 5885 5886 5887 5887 5888 5888 5889 5890 5891 5892 5893 5893 5894 5895 5896 5896 5897 5897 5898 5899 5900 5900
5876 5877 5878 5879 5880 5880 5881 5881 5881 5882 5882 5882 5882 5882 5882 5883 5883 5883 5883 5883 5884 5885 5885 5886 5887 5887 5888 5888 5889 5890 5890 5891 5891 5892 5893 5893 5894 5894 5895 5895 5896 5897 5897
5874 5876 5877 5878 5879 5880 5880 5880 5881 5881 5882 5882 5882 5883 5883 5883 5883 5883 5883 5884 5884 5885 5885 5886 5886 5887 5887 5887 5888 5888 5889 5889 5890 5890 5890 5891 5891 5891 5892 5892 5893 5893 5894
5873 5874 5876 5877 5878 5879 5879 5880 5880 5881 5882 5882 5882 5883 5883 5884 5883 5884 5884 5884 5884 5885 5885 5885 5886 5886 5887 5887 5887 5887 5888 5888 5888 5888 5888 5888 5889 5889 5889 5889 5889 5890 5890
5871 5872 5874 5876 5877 5878 5879 5879 5880 5881 5881 5882 5882 5883 5883 5883 5883 5884 5884 5884 5884 5885 5885 5885 5885 5885 5885 5886 5886 5886 5886 5886 5886 5886 5886 5886 5886 5886 5886 5886 5886 5886 5887
5868 5870 5872 5874 5876 5877 5878 5879 5879 5880 5881 5881 5882 5882 5883 5883 5883 5884 5884 5884 5884 5884 5884 5884 5884 5884 5884 5885 5884 5884 5884 5884 5884 5884 5884 5884 5884 5883 5883 5883 5883 5883 5883
5866 5869 5871 5872 5874 5875 5876 5877 5878 5879 5880 5880 5881 5881 5881 5882 5882 5883 5883 5883 5883 5883 5883 5883 5883 5883 5883 5883 5883 5882 5882 5882 5882 5882 5881 5881 5881 5880 5880 5880 5880 5879 5879
5864 5867 5868 5870 5872 5873 5874 5875 5876 5877 5878 5878 5879 5879 5880 5880 5880 5881 5881 5881 5881 5881 5881 5881 5881 5881 5880 5880 5880 5880 5879 5879 5879 5878 5878 5878 5877 5877 5876 5876 5876 5875 5875
5862 5864 5866 5868 5869 5871 5872 5873 5874 5875 5876 5876 5877 5877 5877 5878 5878 5878 5878 5878 5878 5878 5878 5878 5878 5878 5877 5877 5877 5876 5876 5876 5875 5875 5874 5873 5873 5873 5872 5872 5871 5871 5871
5859 5862 5863 5865 5867 5868 5869 5870 5871 5872 5873 5873 5874 5874 5874 5874 5874 5874 5874 5874 5874 5875 5875 5874 5874 5874 5873 5873 5873 5872 5872 5871 5870 5870 5869 5868 5868 5867 5867 5866 5866 5866 5865
5857 5859 5861 5862 5864 5865 5866 5867 5868 5869 5869 5870 5870 5870 5870 5870 5870 5870 5870 5870 5870 5870 5869 5869 5869 5868 5868 5867 5867 5866 5866 5865 5864 5864 5863 5862 5862 5861 5860 5860 5860 5859 5859
5853 5855 5857 5858 5860 5861 5862 5863 5864 5865 5865 5865 5866 5866 5866 5866 5865 5865 5864 5864 5864 5863 5863 5862 5862 5862 5861 5860 5860 5859 5858 5858 5857 5856 5855 5855 5854 5854 5853 5852 5852 5852 5851
5850 5851 5853 5854 5856 5857 5858 5859 5860 5860 5860 5860 5860 5860 5860 5860 5860 5859 5859 5858 5858 5857 5856 5855 5854 5854 5854 5852 5852 5851 5850 5850 5849 5848 5846 5846 5845 5845 5844 5843 5843 5842 5842
5846 5847 5849 5850 5852 5852 5853 5854 5854 5855 5855 5855 5855 5855 5854 5854 5853 5853 5852 5852 5851 5850 5850 5849 5847 5846 5845 5844 5843 5842 5841 5840 5839 5838 5837 5836 5835 5834 5833 5833 5832 5832 5831
5842 5843 5844 5845 5846 5847 5848 5848 5849 5849 5849 5849 5849 5848 5848 5847 5847 5846 5845 5844 5843 5842 5841 5840 5839 5837 5835 5834 5833 5832 5830 5829 5828 5826 5826 5825 5824 5823 5822 5821 5821 5820 5820
5837 5838 5839 5840 5841 5842 5842 5843 5843 5843 5843 5843 5842 5841 5841 5840 5839 5838 5837 5836 5835 5834 5832 5831 5829 5827 5825 5823 5822 5821 5819 5818 5816 5814 5813 5813 5812 5811 5810 5809 5808 5807 5807
5833 5833 5834 5834 5835 5835 5836 5836 5837 5837 5837 5836 5835 5834 5834 5833 5832 5830 5829 5828 5826 5824 5822 5820 5819 5817 5815 5813 5811 5809 5807 5806 5804 5802 5801 5800 5798 5798 5797 5796 5794 5793 5792
5828 5828 5828 5829 5829 5830 5830 5830 5830 5830 5830 5829 5828 5827 5826 5825 5823 5821 5819 5817 5816 5814 5812 5809 5807 5805 5803 5801 5798 5796 5794 5792 5791 5790 5786 5786 5783 5782 5781 5780 5779 5778 5777
5823 5823 5823 5823 5823 5824 5824 5824 5823 5823 5822 5821 5820 5818 5817 5815 5813 5811 5809 5807 5804 5802 5800 5798 5795 5793 5790 5787 5785 5782 5780 5777 5775 5773 5771 5770 5768 5766 5765 5764 5763 5762 5761
5819 5818 5818 5818 5818 5818 5818 5817 5816 5815 5814 5813 5811 5809 5807 5805 5803 5800 5797 5795 5792 5790 5787 5784 5782 5778 5775 5772 5769 5767 5764 5762 5760 5756 5753 5753 5752 5750 5748 5747 5745 5744 5743
5814 5813 5813 5813 5812 5811 5810 5809 5808 5806 5805 5803 5801 5799 5797 5794 5791 5788 5785 5783 5780 5776 5773 5770 5767 5763 5760 5756 5753 5750 5747 5745 5743 5740 5736 5734 5733 5732 5731 5730 5727 5725 5724
5807 5807 5807 5806 5805 5804 5802 5801 5799 5797 5795 5792 5790 5788 5786 5782 5779 5775 5773 5769 5766 5762 5758 5755 5751 5747 5743 5739 5735 5732 5729 5726 5723 5721 5717 5714 5712 5710 5711 5711 5708 5706 5704
Wind_Speed
7 6 6 5 5 4 3 2 2 2 2 3 3 4 4 5 4 4 4 5 5 6 6 7 8 8 10 11 11 11 11 11 11 10 10 10 10 9 8 8 7 7 6
7 7 6 5 3 3 2 2 2 2 2 2 2 3 3 3 4 4 4 4 5 6 6 6 7 7 8 10 10 11 10 10 11 11 11 11 11 10 10 9 9 9 8
7 6 5 5 3 3 3 2 2 2 1 1 2 2 3 3 3 4 4 3 4 4 5 6 6 6 7 8 9 10 10 9 10 11 12 12 11 11 12 12 11 11 11
7 6 5 5 4 3 3 2 2 2 1 1 1 1 2 2 2 3 4 3 3 3 3 4 4 5 5 6 8 8 9 9 9 10 11 12 12 12 12 13 13 12 12
8 7 6 5 5 4 3 2 2 2 1 1 1 1 1 1 1 1 2 2 2 2 2 3 3 4 4 5 6 7 8 9 9 9 10 11 12 13 13 14 14 14 14
9 8 7 6 5 4 3 2 2 1 0 1 1 1 2 3 3 2 1 1 0 0 2 2 2 3 3 4 5 5 6 7 8 9 10 11 12 13 14 15 14 15 15
10 9 7 6 5 5 4 3 2 1 1 1 1 2 3 4 4 4 3 2 2 2 1 2 2 3 3 3 4 5 6 7 7 8 10 10 11 12 13 14 15 16 16
10 10 8 7 6 5 4 3 2 2 1 1 1 1 2 2 3 3 3 3 2 2 2 2 2 3 3 3 4 5 5 6 7 8 8 9 10 11 12 13 14 15 16
12 11 10 8 7 7 5 4 3 3 3 2 1 0 0 1 2 2 2 2 2 3 3 3 3 4 4 4 5 6 6 7 8 8 9 9 9 10 11 12 13 14 15
14 13 11 10 9 8 7 6 5 5 4 4 3 3 3 3 3 3 4 4 4 4 5 4 5 5 6 6 7 7 8 9 9 9 10 10 10 11 11 12 13 14 15
14 13 12 11 10 10 9 8 8 7 6 6 6 6 6 6 6 6 6 6 7 7 7 7 7 8 8 8 8 9 10 10 11 11 12 12 12 13 13 13 13 14 15
15 15 14 12 12 11 11 10 10 10 9 9 9 9 10 10 10 10 10 10 10 10 11 11 11 11 11 11 11 12 13 13 14 14 15 15 15 15 16 16 16 16 16
16 15 14 14 13 13 13 13 13 12 12 12 12 13 13 14 14 14 14 14 14 14 14 15 15 15 15 15 16 16 17 17 18 18 18 18 19 19 19 19 19 19 19
16 16 16 15 15 15 15 15 15 15 15 16 16 16 17 17 18 19 19 19 20 20 19 19 20 20 21 20 21 21 22 22 23 23 23 23 23 23 23 23 23 23 23
17 16 16 17 17 17 16 16 17 17 18 18 19 20 20 21 22 22 23 23 23 24 24 24 24 25 25 26 26 26 27 27 28 28 28 28 28 27 27 27 27 27 27
16 16 17 17 18 18 18 18 19 19 20 21 21 22 23 24 25 25 25 26 27 27 28 28 28 29 29 30 30 31 31 32 32 33 33 32 32 32 32 32 32 32 31
17 18 18 19 19 20 21 21 21 21 22 23 23 24 25 26 27 27 28 28 28 29 30 31 32 33 33 34 34 34 35 35 35 35 36 36 36 36 36 36 36 36 36
18 19 21 20 21 21 22 22 22 23 23 24 25 26 27 28 28 29 29 30 31 32 32 33 35 36 36 37 38 38 38 38 38 38 38 38 38 39 39 39 39 39 39
19 20 20 21 21 22 22 23 23 23 24 24 25 26 27 28 29 30 31 32 33 34 34 35 36 38 38 39 40 40 41 41 41 41 41 41 41 41 42 42 42 42 42
19 20 21 21 22 23 23 24 24 24 24 24 25 26 27 28 29 31 32 33 34 36 37 38 38 39 40 41 41 41 42 43 43 44 44 44 44 44 44 45 46 46 46
20 21 21 21 22 22 23 23 23 24 24 25 26 27 28 29 31 33 35 36 37 39 40 41 41 42 43 43 44 45 46 46 46 47 48 48 48 48 48 47 47 48 49
18 19 20 20 20 21 22 23 24 25 27 28 28 30 30 31 33 35 36 38 39 40 41 43 43 45 45 46 47 47 48 49 49 50 51 51 51 51 50 50 50 50 51
17 18 19 20 21 22 22 24 25 27 29 30 32 33 34 34 36 38 40 41 42 43 44 45 46 47 48 49 50 50 52 53 53 52 53 52 52 52 53 52 52 52 52
18 18 19 20 22 23 25 27 29 30 32 34 35 36 38 39 40 42 43 43 45 46 47 47 49 50 52 53 53 54 55 55 55 55 56 56 55 54 54 54 54 54 54
21 22 23 24 25 27 29 30 32 33 34 36 37 38 39 40 42 44 45 46 47 49 50 51 53 54 55 56 57 58 58 58 58 58 58 59 58 57 56 56 57 57 58
26 26 27 28 29 30 31 32 34 36 37 39 40 41 42 43 45 47 48 50 51 52 53 55 56 57 59 60 61 61 61 61 61 61 61 61 61 61 59 58 58 58 58
Wind_Direction
253 254 255 267 278 278 276 302 312 306 296 289 288 282 271 258 253 256 247 249 254 252 251 247 243 242 237 231 228 229 231 233 236 238 239 241 244 247 245 246 250 252 253
254 257 258 260 269 274 272 282 301 308 305 298 292 286 280 258 249 256 259 258 257 258 255 252 250 247 237 233 233 232 233 237 241 242 243 245 245 248 246 248 252 255 256
257 256 254 258 268 284 285 283 289 306 316 305 290 286 284 265 258 250 263 269 270 269 265 255 252 248 240 239 238 236 236 240 245 246 246 247 248 249 248 249 252 257 258
253 255 251 257 260 266 272 283 293 297 305 320 320 296 304 285 276 258 266 278 276 273 273 253 254 257 249 246 240 239 242 245 250 251 250 250 251 252 251 250 252 256 259
244 247 248 251 249 256 262 267 277 278 301 339 356 4 18 9 343 293 278 278 279 258 272 273 260 269 263 258 251 252 254 253 251 253 255 256 258 257 255 255 254 257 259
235 240 241 241 240 245 250 256 262 261 267 52 54 49 56 49 49 50 23 339 41 311 286 291 292 281 278 273 266 264 263 261 261 259 260 260 263 263 258 257 258 258 261
233 232 234 233 234 239 242 248 251 233 204 122 78 68 63 60 59 62 60 50 52 49 18 339 322 311 306 299 289 284 282 277 276 275 270 268 269 267 265 264 262 261 261
230 229 228 230 232 233 233 234 228 219 213 176 110 83 61 51 44 47 50 46 41 18 352 335 333 325 319 309 305 295 296 293 293 292 287 280 277 274 270 270 267 265 264
227 226 224 227 232 232 231 230 228 228 231 233 239 258 355 11 351 356 12 3 348 350 341 325 319 311 308 306 307 304 301 298 296 298 298 296 292 287 281 276 271 268 268
225 225 225 227 231 233 231 232 236 238 240 247 258 270 285 295 304 311 313 313 317 322 326 324 318 309 305 305 304 299 295 297 297 298 299 296 291 289 289 288 282 275 273
223 225 225 227 232 234 235 236 240 242 247 254 263 273 281 286 289 292 296 294 297 299 302 305 305 305 303 304 302 298 298 297 297 297 297 296 293 290 288 286 286 283 280
223 225 227 228 232 236 236 239 243 247 251 257 264 272 279 284 288 289 290 289 289 289 291 293 295 297 298 298 297 297 298 297 296 295 295 294 292 291 289 288 285 283 281
225 226 228 231 234 238 241 244 248 253 257 262 267 271 275 278 283 285 286 285 284 284 285 287 288 289 290 292 292 292 292 292 292 292 291 290 289 288 287 286 284 283 281
228 230 233 235 238 241 245 249 251 256 261 265 268 271 274 276 278 281 283 283 283 283 284 284 285 286 287 288 288 289 289 290 290 289 288 288 287 286 285 284 283 282 281
230 235 237 240 242 245 249 252 255 260 264 268 270 271 272 274 277 279 281 283 284 284 284 283 284 285 285 285 286 286 286 287 288 288 287 287 286 285 284 283 282 281 280
232 236 240 243 245 248 252 256 260 263 267 270 271 272 273 275 276 278 280 281 283 284 284 284 284 284 284 285 285 285 285 285 285 285 284 284 284 283 283 282 281 280 278
238 241 244 246 250 254 256 260 263 265 268 271 272 273 275 276 277 278 279 280 281 283 284 285 285 285 285 285 285 284 284 284 284 284 283 282 281 281 281 281 280 278 277
245 246 248 251 254 258 260 262 264 267 270 272 273 274 276 277 278 279 280 280 281 282 284 285 286 286 285 285 285 285 285 284 283 282 282 281 281 281 280 279 278 277 276
249 251 253 255 258 259 262 265 268 271 272 274 276 277 278 278 279 281 281 282 282 283 284 285 286 287 286 285 284 284 283 283 283 282 281 280 280 280 278 278 277 276 275
255 255 259 262 263 263 265 269 270 273 274 277 278 279 279 280 281 282 283 283 283 284 285 285 285 285 285 285 285 283 282 282 283 283 283 282 280 281 280 278 277 275 274
261 263 263 264 265 266 267 270 272 274 277 280 280 282 283 283 284 284 284 284 284 284 285 286 285 285 285 285 284 283 283 282 282 282 282 282 281 280 279 279 277 274 274
270 268 265 267 268 268 268 270 272 275 278 281 281 283 285 286 286 286 287 287 286 286 286 286 285 285 285 285 284 283 283 282 282 282 281 281 281 280 280 278 277 275 274
281 276 270 269 270 271 271 274 278 282 283 284 285 287 287 287 286 287 288 288 287 287 287 287 286 286 285 285 284 284 283 283 283 282 281 281 280 279 278 277 276 274 273
279 279 276 275 274 276 278 280 282 284 285 286 286 287 288 288 288 289 289 289 289 289 289 288 288 287 287 286 285 285 284 284 283 282 282 281 279 279 278 277 275 274 274
279 280 279 280 281 282 282 282 284 285 287 288 288 289 290 290 290 290 290 290 290 290 290 289 289 289 288 287 287 286 285 284 283 282 282 281 280 278 277 276 275 274 274
278 281 282 283 284 284 284 285 287 288 289 290 290 291 292 291 291 291 291 291 291 290 290 290 289 288 288 287 287 286 285 284 284 283 282 281 280 279 278 277 276 274 274